Regional Weather Roundup
Issued by NWS Newport/Morehead, NC

Current Version | Previous Version | Graphics & Text | Print | Product List | Glossary On
Versions: 1 2 3 4 5 6 7 8 9 10 11 12 13 14 15 16 17 18 19 20 21 22 23 24 25 26 27 28 29 30 31 32 33 34 35 36 37 38 39 40 41 42 43 44 45 46 47 48 49 50
000 ASUS42 KMHX 192313 RWRMHX WEATHER ROUNDUP FOR EASTERN NORTH CAROLINA NATIONAL WEATHER SERVICE NEWPORT/MOREHEAD CITY NC 600 PM EST SUN FEB 19 2017 NOTE: "FAIR" INDICATES FEW OR NO CLOUDS BELOW 12,000 FEET WITH NO SIGNIFICANT WEATHER AND/OR OBSTRUCTIONS TO VISIBILITY NCZ015>017-031-032-045>047-102-103-200000- NORTH COAST CITY SKY/WX TMP DP RH WIND PRES REMARKS EDENTON CLEAR 69 47 45 CALM 29.95R ELIZABETH CITY CLEAR 61 45 55 S6 29.95R KITTY HAWK NOT AVBL MANTEO CLEAR 58 45 61 N3 29.95S $$ NCZ045>047-081-094-103-104-200000- CENTRAL COAST CITY SKY/WX TMP DP RH WIND PRES REMARKS FRISCO CLEAR 56 46 69 CALM 29.94S $$ NCZ095-097-098-100-101-200000- SOUTHERN COAST CITY SKY/WX TMP DP RH WIND PRES REMARKS BEAUFORT CLEAR 58 49 72 SE3 29.95R CEDAR ISLAND NOT AVBL JACKSONVILLE CLEAR 66 45 46 NW8 29.96R PINEY ISLAND CLEAR N/A N/A N/A CALM 29.94R WILMINGTON CLEAR 68 46 45 NW12 29.97R $$ NCZ011>013-027>030-043-044-078>080-089-090>093-098-200000- COASTAL PLAIN CITY SKY/WX TMP DP RH WIND PRES REMARKS AHOSKIE N/A 66 46 47 CALM 29.96R CLINTON CLEAR 68 48 48 CALM 29.98S ELIZABETHTOWN CLEAR 69 46 44 NW5 29.98R GOLDSBORO CLEAR 69 42 38 NW5 29.95R GREENVILLE CLEAR 68 45 42 CALM 29.98R HAVELOCK CLEAR 68 42 38 NW6 29.96R KENANSVILLE NOT AVBL KINSTON CLEAR 68 43 40 CALM 29.97R NEW BERN CLEAR 67 44 43 W3 29.96R RICHLANDS CLEAR 66 46 48 CALM 29.97R ROCKY MOUNT CLEAR 66 44 45 NW3 29.97R WASHINGTON CLEAR 68 44 42 NW3 29.96R WHITEVILLE CLEAR 68 46 45 W3 29.98R $$ AMZ130-135-150-152-154-156-158-170-250-252-270-ANZ085-086-088-633-658-670-200000- MARINE OBSERVATIONS STATION/POSITION TIME TEMP WIND PRES WAVE SWELL AIR SEA DIR/SP/G HT/PER HT/PER (UTC) (F) (DEG/KT/KT) (MB) (FT/S) (FT/S) CHESAPEAKE LIGHT NOT AVBL 64 E VA BEACH 2250 53 51 320/ 8/ 8 1013.4 2/ 8 2/ 8 DUCK 2236 53 48 20/ 6/ 10 1013.2 2 E DUCK 2300 49 N/A 1/ 7 OREGON INLET 2236 59 51 340/ 4/ 5 1014.0 13E OREGON INLT NOT AVBL HATTERAS CG 2236 61 56 CALM 1013.6 DIAMOND BUOY 2250 61 67 350/ 6/ 8 1014.0 2/ 7 2/ 7 CAPE LOOKOUT 2300 59 CALM / 1 1014.1 BEAUFORT LAB 2236 59 53 230/ 3/ 4 1013.1 30 SE NEW RVR IN 2208 63 250/ 10/ 12 1014.2 30 SE NEW RVR IN 2243 63 N/A 2/ 6 27 SE WRIGHTSVLE 2208 60 60 240/ 8/ 12 1013.5 5 SE WRIGHTSVLE 2208 64 57 320/ 6/ 10 1013.9 225 S CAPE HAT 2250 69 71 340/ 16/ 19 1013.3 4/ 6 2/ 9 41 SE CHARLESTON 2250 67 69 250/ 12/ 14 1015.4 2/ 7 2/ 7 $$

USA.gov is the U.S. government's official web portal to all federal, state and local government web resources and services.